Tracking 29892 objects as of 21-Nov-2024
HD Live streaming from Space Station
objects crossing your sky now

STARLINK-32515

Track STARLINK-32515 now!
10-day predictions
STARLINK-32515 is classified as:


NORAD ID: 61705
Int'l Code: 2024-195U
Perigee: 399.1 km
Apogee: 400.4 km
Inclination: 53.2 °
Period: 92.4 minutes
Semi major axis: 6770 km
RCS: Unknown
Launch date: October 30, 2024
Source: United States (US)
Launch site: AIR FORCE WESTERN TEST RANGE (AFWTR)
Your satellite tracking list
Your tracking list is empty




NASA's NSSDC Master Catalog

Two Line Element Set (TLE):
1 61705U 24195U   24325.91668981 -.01499907  00000-0 -21805-1 0  9992
2 61705  53.1593 203.6151 0000975  77.3863  57.8256 15.58284135  4470
Source of the keplerian elements: AFSPC